STARLINK-4308, 53061

Orbit data source: Space-Track

STARLINK-4308, 53061 is a payload satellite owned by SpaceX/Seattle (US) in SSO that was launched on Mon, 11 Jul 2022 UTC via an FALCON 9 launch vehicle from the Air Force Western Test Range (AFWTR). Payload-class satellites include a variety of spacecraft equipped with specific instruments for various scientific and technological missions. These include communications satellites like Starlink; space stations such as the ISS; scientific satellites like the Hubble; Earth observation satellites from companies like Planet Labs, Umbra, and HawkEye 360; GPS; miniature CubeSats for education and research; and military/defense satellites.

Loading next visibility...
Identifier
53061, 2022-077U
Orbit
SSO
Country
Flag of USUS
Related business
Manufacturer
SpaceX/Seattle
Mission
Operational Commercial Communications
Bus & Motor
STARLINK, Unknown motor
Mass
297 kg wet, ~275 kg dry
Launch date (UTC)
2022-07-11 (4 years ago)
Launch vehicle
FALCON 9
Launch site
Air Force Western Test Range (AFWTR)
Object type
Payload
Rocket body
Debris
Shape & HBR
Box + 1 Pan, 10.1 m
Radar Cross Section
13.562 m², Large (>1 m²)

Expand to show TLE details & history
Last TLE update: 2 days ago

TLE from 2 days ago
0 STARLINK-4308
1 53061U 22077U   26171.47777892 -.00002420  00000-0 -16379-3 0  9990
2 53061  97.3375 350.2960 0001794  87.8737 272.2696 15.05664356216371
Epoch: 2026-06-20T11:28Z
TLE epoch observation values (Epoch: 2026-06-20T11:28:00.098Z)
Latitude
-0.00003°
Longitude
-90.39624°
Altitude
552.491 km
Speed
7.586 km/s
True Right ascension
23h 21m 11s
True Declination
0° 00' 00"
Sunlit
Object was in daylight at epoch
Visualization orbit readout
Latitude
Unknown
Longitude
Unknown
Altitude
Unknown
Speed
Unknown
Apparent Right ascension
Unknown
Apparent Declination
Unknown
Sunlit
N/A
Visualization observer readout
Local Sidereal Time
23:20:58
Azimuth
Unknown
Elevation
Unknown
Doppler factor
Unknown
Orbital elements
Apogee altitude
547.691 km
Perigee altitude
545.207 km
Semi-major axis
6,924.586 km
Eccentricity
0.00018
Inclination
97.3375°
RAAN
350.296°
Arg. of periapsis
87.8737°
True anomaly
272.24906°
Mean anomaly
272.2696°
Eccentric anomaly
272.25933°
Mean motion
3.76663 °/min
Orbital period
95.58 mins
BSTAR
-0.00016379
Loading maneuver chart data...
Computing Atmospheric mass density...
Loading historical data...
Loading historical data...
Loading historical data...
Loading historical data...
Loading historical data...
Loading historical data...
Loading historical data...

Documentation

Showing up to 5 results
|